Location: T�bingen+AIT
(48.5342°N, 9.0700°E)
Time: 20:29:07
(UTC+02:00)

BREEZE-M DEB (TANK) - Pass Details

Date: 14 September 2017
Orbit: 267 x 13254 km, 49.5° (Epoch: 19 September)

Event Time Altitude Azimuth Distance (km) Brightness Sun altitude
Rises 20:48:42 0° 274° (W) 2,850 7.6 -12.2°
Reaches altitude 10° 20:51:29 10° 277° (W) 1,404 5.8 -12.6°
Maximum altitude 20:54:00 65° 2° (N) 313 1.1 -13.0°
Enters shadow 20:54:45 32° 74° (ENE) 499 1.7 -13.1°
